Location: Unspecified
(0.0000°N, 0.0000°E)
Time: 12:06:27
(UTC+00:00)

STARLINK 1024 - Pass Details

Date: 12 December 2019
Orbit: 344 x 355 km, 53.0° (Epoch: 10 December)

Event Time Altitude Azimuth Distance (km) Brightness Sun altitude
Rises 18:42:51 0° 183° (S) 2,132 7.0 -11.3°
Reaches altitude 10° 18:45:53 10° 147° (SSE) 1,290 5.4 -12.0°
Maximum altitude 18:46:58 12° 125° (SE) 1,203 5.1 -12.2°
Enters shadow 18:47:16 11° 118° (ESE) 1,210 5.0 -12.3°
